DPV1018 VNKT-VQPR

Flight info

Callsign DPV1018
Flight time N/A
Altitude 35000
Route IGRIS1E KIMTI G348 SUBSU DCT TAKTI DCT PRO
Aircraft A319/M-SDE3FGHIRWY/LB1

Departure

Time 2026-04-28 14:41
Airport Tribhuvan International Airport (VNKT)

Arrival

Time N/A
Airport Paro International Airport (VQPR)
Time Latitude Longitude Altitude Speed Heading
2026-04-28 14:24 27.70071 85.35870 4482 ft 0 kts 291°
2026-04-28 14:33 27.70066 85.35884 4533 ft 2 kts 291°
2026-04-28 14:34 27.70055 85.35916 4533 ft 2 kts 291°
2026-04-28 14:34 27.70049 85.35931 4533 ft 2 kts 291°
2026-04-28 14:34 27.70045 85.35942 4533 ft 2 kts 305°
2026-04-28 14:35 27.70029 85.35957 4532 ft 2 kts 339°
2026-04-28 14:35 27.70014 85.35960 4532 ft 2 kts
2026-04-28 14:35 27.70005 85.35958 4531 ft 0 kts 19°
2026-04-28 14:35 27.69998 85.35954 4531 ft 0 kts 22°
2026-04-28 14:37 27.69998 85.35955 4531 ft 0 kts 22°
2026-04-28 14:37 27.70006 85.35958 4531 ft 2 kts 22°
2026-04-28 14:37 27.70037 85.35973 4532 ft 7 kts 21°
2026-04-28 14:38 27.70109 85.36005 4533 ft 14 kts 22°
2026-04-28 14:38 27.70209 85.36050 4533 ft 17 kts 21°
2026-04-28 14:38 27.70328 85.36104 4533 ft 19 kts 22°
2026-04-28 14:38 27.70470 85.36169 4529 ft 23 kts 21°
2026-04-28 14:39 27.70581 85.36289 4524 ft 22 kts 66°
2026-04-28 14:39 27.70699 85.36395 4523 ft 23 kts 21°
2026-04-28 14:39 27.70836 85.36474 4520 ft 20 kts 58°
2026-04-28 14:39 27.70919 85.36520 4513 ft 16 kts 298°
2026-04-28 14:40 27.70877 85.36473 4517 ft 6 kts 197°
2026-04-28 14:40 27.70865 85.36468 4518 ft 4 kts 198°
2026-04-28 14:40 27.70413 85.36264 4525 ft 97 kts 201°
2026-04-28 14:40 27.69579 85.35886 4512 ft 157 kts 202°
2026-04-28 14:41 27.68488 85.35390 4804 ft 176 kts 206°
2026-04-28 14:41 27.67380 85.34845 5504 ft 173 kts 204°
2026-04-28 14:41 27.66341 85.34267 6221 ft 165 kts 218°
2026-04-28 14:41 27.65529 85.33375 6594 ft 168 kts 237°
2026-04-28 14:42 27.65010 85.32167 6810 ft 176 kts 256°
2026-04-28 14:42 27.64891 85.30761 7045 ft 186 kts 276°
2026-04-28 14:42 27.65245 85.29321 7295 ft 197 kts 296°
2026-04-28 14:42 27.66082 85.28044 7606 ft 208 kts 314°
2026-04-28 14:43 27.67318 85.27037 7835 ft 227 kts 334°
2026-04-28 14:43 27.68868 85.26537 8206 ft 240 kts 354°
2026-04-28 14:43 27.70544 85.26701 8735 ft 245 kts 16°
2026-04-28 14:43 27.72063 85.27544 9276 ft 248 kts 37°
2026-04-28 14:44 27.73225 85.28990 9792 ft 251 kts 60°
2026-04-28 14:44 27.74002 85.30782 10171 ft 259 kts 65°
2026-04-28 14:44 27.74753 85.32692 10440 ft 272 kts 65°
2026-04-28 14:44 27.75508 85.34670 10864 ft 278 kts 71°
2026-04-28 14:45 27.75847 85.36800 11352 ft 281 kts 89°
2026-04-28 14:45 27.75598 85.38975 11893 ft 282 kts 107°
2026-04-28 14:45 27.74791 85.40969 12416 ft 283 kts 124°
2026-04-28 14:45 27.73961 85.42130 12769 ft 284 kts 136°
2026-04-28 14:46 27.71783 85.43790 13478 ft 287 kts 155°
2026-04-28 14:46 27.69940 85.44685 13953 ft 291 kts 156°
2026-04-28 14:46 27.68106 85.45805 14255 ft 305 kts 146°
2026-04-28 14:46 27.66421 85.47321 14523 ft 319 kts 136°
2026-04-28 14:47 27.64934 85.49256 14791 ft 333 kts 125°
2026-04-28 14:47 27.63760 85.51539 15043 ft 347 kts 114°
2026-04-28 14:47 27.62922 85.54142 15332 ft 358 kts 107°
2026-04-28 14:47 27.62222 85.56850 15786 ft 364 kts 105°
2026-04-28 14:48 27.61527 85.59590 16354 ft 367 kts 106°
2026-04-28 14:48 27.60809 85.62366 17002 ft 370 kts 106°
2026-04-28 14:48 27.60077 85.65141 17599 ft 373 kts 107°
2026-04-28 14:48 27.59345 85.67892 18156 ft 376 kts 108°
2026-04-28 14:49 27.58368 85.70734 18664 ft 380 kts 115°
2026-04-28 14:49 27.57253 85.73344 19049 ft 383 kts 117°
2026-04-28 14:49 27.56030 85.76094 19464 ft 386 kts 117°
2026-04-28 14:49 27.54823 85.78801 19868 ft 388 kts 117°
2026-04-28 14:50 27.53620 85.81516 20262 ft 390 kts 116°
2026-04-28 14:50 27.52447 85.84291 20641 ft 392 kts 112°
2026-04-28 14:50 27.51573 85.87211 21011 ft 394 kts 104°
2026-04-28 14:50 27.51064 85.90238 21375 ft 396 kts 96°
2026-04-28 14:51 27.50871 85.93301 21686 ft 400 kts 92°
2026-04-28 14:51 27.50762 85.96489 21846 ft 409 kts 92°
2026-04-28 14:51 27.50663 85.99709 22009 ft 417 kts 92°
2026-04-28 14:51 27.50556 86.03004 22168 ft 426 kts 92°
2026-04-28 14:52 27.50438 86.06348 22375 ft 431 kts 92°
2026-04-28 14:52 27.50315 86.09708 22645 ft 433 kts 92°
2026-04-28 14:52 27.50187 86.13097 22919 ft 434 kts 92°
2026-04-28 14:52 27.50057 86.16499 23166 ft 436 kts 92°
2026-04-28 14:53 27.49924 86.19904 23404 ft 438 kts 92°
2026-04-28 14:53 27.49767 86.23323 23660 ft 440 kts 94°
2026-04-28 14:53 27.49463 86.26739 23963 ft 441 kts 97°
2026-04-28 14:53 27.48990 86.30148 24264 ft 443 kts 100°
2026-04-28 14:54 27.48371 86.33535 24561 ft 445 kts 101°
2026-04-28 14:54 27.47715 86.36950 24863 ft 447 kts 102°
2026-04-28 14:54 27.47057 86.40352 25158 ft 449 kts 102°
2026-04-28 14:54 27.46391 86.43790 25448 ft 451 kts 101°
2026-04-28 14:55 27.45724 86.47244 25730 ft 453 kts 101°
2026-04-28 14:55 27.45052 86.50723 26007 ft 455 kts 101°
2026-04-28 14:55 27.44388 86.54167 26286 ft 457 kts 101°
2026-04-28 14:55 27.43705 86.57705 26591 ft 459 kts 101°
2026-04-28 14:56 27.43031 86.61190 26901 ft 460 kts 101°
2026-04-28 14:56 27.42354 86.64689 27210 ft 462 kts 101°
2026-04-28 14:56 27.41673 86.68212 27516 ft 463 kts 101°
2026-04-28 14:56 27.40981 86.71790 27814 ft 465 kts 101°
2026-04-28 14:57 27.40291 86.75357 28101 ft 467 kts 101°
2026-04-28 14:57 27.39834 86.77711 28297 ft 468 kts 101°
2026-04-28 14:57 27.38904 86.82486 28798 ft 467 kts 101°
2026-04-28 14:57 27.38209 86.86046 29201 ft 466 kts 101°
2026-04-28 14:58 27.37520 86.89574 29610 ft 465 kts 101°
2026-04-28 14:58 27.36823 86.93134 30018 ft 464 kts 101°
2026-04-28 14:58 27.36135 86.96640 30406 ft 464 kts 101°
2026-04-28 14:58 27.35438 87.00196 30796 ft 463 kts 101°
2026-04-28 14:59 27.34751 87.03688 31169 ft 463 kts 101°
2026-04-28 14:59 27.34054 87.07230 31524 ft 463 kts 101°
2026-04-28 14:59 27.33331 87.10757 31857 ft 463 kts 103°
2026-04-28 14:59 27.32497 87.14085 32166 ft 464 kts 106°
2026-04-28 15:00 27.31450 87.17522 32481 ft 465 kts 110°
2026-04-28 15:00 27.30226 87.20899 32785 ft 465 kts 113°
2026-04-28 15:00 27.28847 87.24163 33078 ft 466 kts 117°
2026-04-28 15:00 27.27282 87.27383 33337 ft 467 kts 120°
2026-04-28 15:01 27.25606 87.30474 33557 ft 469 kts 122°
2026-04-28 15:01 27.23875 87.33599 33765 ft 471 kts 122°
2026-04-28 15:01 27.22137 87.36731 33980 ft 472 kts 122°
2026-04-28 15:01 27.20414 87.39839 34193 ft 473 kts 122°
2026-04-28 15:02 27.18667 87.42993 34397 ft 474 kts 122°
2026-04-28 15:02 27.16918 87.46156 34571 ft 476 kts 123°
2026-04-28 15:02 27.15167 87.49320 34727 ft 478 kts 123°
2026-04-28 15:03 27.11657 87.55660 34830 ft 482 kts 123°
2026-04-28 15:03 27.08132 87.62017 34820 ft 484 kts 123°
2026-04-28 15:04 27.04571 87.68439 34794 ft 485 kts 124°
2026-04-28 15:04 27.00993 87.74906 34740 ft 486 kts 124°
2026-04-28 15:05 26.97421 87.81335 34710 ft 487 kts 124°
2026-04-28 15:05 26.93828 87.87782 34684 ft 488 kts 124°
2026-04-28 15:06 26.90250 87.94191 34653 ft 489 kts 124°
2026-04-28 15:06 26.86593 88.00691 34801 ft 491 kts 124°
2026-04-28 15:06 26.84781 88.03909 34966 ft 490 kts 124°
2026-04-28 15:07 26.82958 88.07159 35283 ft 487 kts 124°
2026-04-28 15:07 26.81161 88.10366 35525 ft 486 kts 124°
2026-04-28 15:07 26.79379 88.13551 35596 ft 487 kts 124°
2026-04-28 15:07 26.77573 88.16773 35235 ft 490 kts 125°
2026-04-28 15:08 26.75750 88.20029 34425 ft 499 kts 125°
2026-04-28 15:08 26.74031 88.23434 33485 ft 510 kts 116°
2026-04-28 15:08 26.72827 88.27130 32671 ft 515 kts 105°
2026-04-28 15:08 26.72224 88.31082 31964 ft 516 kts 94°
2026-04-28 15:09 26.72267 88.35085 31175 ft 514 kts 82°
2026-04-28 15:09 26.72946 88.38959 30261 ft 510 kts 71°
2026-04-28 15:09 26.74229 88.42621 29413 ft 501 kts 60°
2026-04-28 15:09 26.75348 88.44854 28901 ft 495 kts 56°
2026-04-28 15:10 26.77744 88.49136 27831 ft 488 kts 54°
2026-04-28 15:10 26.79559 88.52331 27059 ft 481 kts 55°
2026-04-28 15:10 26.81327 88.55475 26372 ft 473 kts 55°
2026-04-28 15:10 26.83043 88.58566 25670 ft 465 kts 56°
2026-04-28 15:11 26.84706 88.61586 25074 ft 455 kts 56°
2026-04-28 15:11 26.86352 88.64594 24569 ft 443 kts 56°
2026-04-28 15:11 26.87920 88.67474 24126 ft 432 kts 57°
2026-04-28 15:11 26.89475 88.70342 23705 ft 429 kts 57°
2026-04-28 15:12 26.91037 88.73222 23314 ft 427 kts 57°
2026-04-28 15:12 26.92285 88.75520 23010 ft 425 kts 57°
2026-04-28 15:12 26.93826 88.78355 22585 ft 423 kts 57°
2026-04-28 15:12 26.95339 88.81139 22108 ft 419 kts 57°
2026-04-28 15:13 26.96859 88.83936 21595 ft 415 kts 57°
2026-04-28 15:13 26.98329 88.86676 21111 ft 412 kts 59°
2026-04-28 15:13 26.99733 88.89450 20607 ft 407 kts 59°
2026-04-28 15:13 27.01095 88.92176 20345 ft 395 kts 59°
2026-04-28 15:14 27.02413 88.94822 20205 ft 379 kts 59°
2026-04-28 15:14 27.03681 88.97367 20084 ft 363 kts 60°
2026-04-28 15:14 27.04890 88.99792 19988 ft 348 kts 60°
2026-04-28 15:14 27.06033 89.02087 19907 ft 333 kts 60°
2026-04-28 15:15 27.07141 89.04311 19838 ft 318 kts 60°
2026-04-28 15:15 27.07847 89.05730 19815 ft 308 kts 60°
2026-04-28 15:15 27.09203 89.08460 19772 ft 289 kts 60°
2026-04-28 15:15 27.10162 89.10392 19785 ft 284 kts 59°
2026-04-28 15:16 27.11141 89.12334 19820 ft 284 kts 59°
2026-04-28 15:16 27.12111 89.14259 19797 ft 284 kts 59°
2026-04-28 15:16 27.13075 89.16180 19721 ft 284 kts 59°
2026-04-28 15:16 27.14005 89.18046 19608 ft 282 kts 59°
2026-04-28 15:17 27.14957 89.19959 19415 ft 281 kts 59°
2026-04-28 15:17 27.15915 89.21886 19222 ft 279 kts 60°
2026-04-28 15:17 27.16942 89.23709 19029 ft 274 kts 51°
2026-04-28 15:17 27.18064 89.25178 18800 ft 269 kts 44°
2026-04-28 15:18 27.19458 89.26546 18550 ft 264 kts 35°
2026-04-28 15:18 27.20985 89.27647 18294 ft 259 kts 27°
2026-04-28 15:18 27.22618 89.28479 18046 ft 253 kts 19°
2026-04-28 15:18 27.24234 89.29017 17759 ft 248 kts 11°
2026-04-28 15:19 27.25903 89.29370 17377 ft 245 kts
2026-04-28 15:19 27.27581 89.29693 16935 ft 243 kts
2026-04-28 15:19 27.29248 89.30012 16494 ft 242 kts
2026-04-28 15:19 27.30921 89.30338 16061 ft 241 kts
2026-04-28 15:20 27.32550 89.30633 15639 ft 239 kts
2026-04-28 15:20 27.34205 89.30579 15220 ft 237 kts 348°
2026-04-28 15:20 27.35792 89.30060 14813 ft 234 kts 334°
2026-04-28 15:20 27.37194 89.29173 14429 ft 231 kts 326°
2026-04-28 15:21 27.38519 89.28178 14409 ft 227 kts 324°
2026-04-28 15:21 27.39784 89.27217 14413 ft 210 kts 324°
2026-04-28 15:21 27.40946 89.26369 14395 ft 191 kts 330°
2026-04-28 15:21 27.42172 89.25836 14441 ft 188 kts 346°
2026-04-28 15:22 27.43479 89.25684 14490 ft 189 kts
2026-04-28 15:22 27.44794 89.25929 14528 ft 190 kts 17°
2026-04-28 15:22 27.45993 89.26544 14540 ft 191 kts 33°
2026-04-28 15:22 27.47012 89.27499 14542 ft 191 kts 49°
2026-04-28 15:23 27.47780 89.28738 14538 ft 191 kts 64°
2026-04-28 15:23 27.48224 89.30109 14389 ft 186 kts 79°
2026-04-28 15:23 27.48340 89.31535 14003 ft 184 kts 95°
2026-04-28 15:23 27.48128 89.32929 13551 ft 182 kts 109°
2026-04-28 15:24 27.47614 89.34225 13099 ft 180 kts 123°
2026-04-28 15:24 27.46898 89.35362 12621 ft 179 kts 129°
2026-04-28 15:24 27.46064 89.36414 12016 ft 186 kts 137°
2026-04-28 15:24 27.45074 89.37427 11151 ft 204 kts 139°
2026-04-28 15:25 27.44115 89.38567 10591 ft 201 kts 130°
2026-04-28 15:25 27.43283 89.39824 10082 ft 199 kts 128°
2026-04-28 15:25 27.42417 89.40997 9830 ft 190 kts 133°
2026-04-28 15:25 27.41543 89.42012 9818 ft 174 kts 138°
2026-04-28 15:26 27.40581 89.42979 9917 ft 196 kts 146°
2026-04-28 15:26 27.39326 89.43835 9950 ft 224 kts 148°
2026-04-28 15:26 27.38001 89.44868 10191 ft 239 kts 145°
2026-04-28 15:26 27.36602 89.46000 10330 ft 260 kts 144°
2026-04-28 15:27 27.36480 89.46099 10351 ft 261 kts 144°